Location: Sternwarte Stuttgart
(48.7670°N, 9.1830°E)
Time: 22:47:54
(UTC+01:00)

Daily predictions for brighter satellites

Satellite Brightness Start Highest point End
(mag) Time Altitude Azimuth Time Altitude Azimuth Time Altitude Azimuth
EO 1 Del DPAF 3.3 16:57:28 10° NNE 17:01:23 87° E 17:05:16 10° SSW
ATLAS CENTAUR R/B 3.1 16:57:49 10° W 17:02:03 31° NW 17:06:04 10° NNE
Abrixas 2.7 16:59:45 10° WSW 17:02:41 63° SSE 17:05:38 10° E
MSX 4.5 16:58:43 10° ESE 17:03:43 32° ENE 17:08:45 10° N
CSL-04 Debris 4.2 17:00:25 10° SSE 17:05:49 89° ENE 17:11:16 10° NNW
CSL-04 Rocket 4.0 17:01:44 10° SSE 17:07:12 79° WSW 17:12:45 10° NNW
Cosmos 2344 4.3 17:00:08 10° WSW 17:07:49 55° NW 17:17:17 10° NE
Meteor 2-13 Rocket 4.4 17:02:35 10° N 17:08:45 78° E 17:14:50 10° SSE
Cosmos 1536 3.0 17:06:34 10° N 17:10:33 52° ENE 17:14:32 10° SSE
MTI 4.1 17:11:16 10° N 17:14:35 73° WNW 17:17:53 10° SSW
Cosmos 1606 3.2 17:12:48 10° SSW 17:16:43 67° WNW 17:20:38 10° N
Cosmos 1674 Rocket 3.8 17:13:34 10° SSW 17:18:02 76° WNW 17:22:31 10° N
Meteor 1-27 Rocket 3.8 17:12:41 10° S 17:18:32 79° E 17:24:17 10° NNE
Cosmos 1844 Rocket 3.6 17:14:49 10° SSE 17:19:28 28° ESE 17:24:11 10° NE
Cosmos 158 Rocket 4.0 17:16:08 10° NNW 17:21:32 69° ENE 17:26:49 10° SSE
CZ-3B DEB 3.6 17:19:21 10° SSE 17:22:43 22° ESE 17:28:25 11° ENE
Cosmos 1048 Rocket 4.1 17:17:51 10° NNW 17:23:11 85° WSW 17:28:32 10° SSE
ERBS 3.7 17:22:11 10° W 17:25:12 28° NNW 17:27:59 11° NE
GEOS 3 Rocket 3.8 17:20:25 10° ESE 17:25:20 50° NE 17:30:18 10° NNW
Okean 1 Rocket 3.4 17:21:20 10° NNW 17:25:40 70° W 17:29:58 10° S
Cosmos 1633 3.0 17:25:29 10° NNW 17:29:04 65° W 17:32:37 10° S
COSMO-SKYMED 1 4.1 17:28:42 12° NE 17:31:11 18° E 17:34:08 10° SE
MOS 1 4.2 17:26:16 10° SSE 17:31:55 76° ENE 17:37:36 10° NNW
Cosmos 1544 Rocket 4.0 17:28:01 10° N 17:32:15 40° ENE 17:36:27 10° SE
CZ-2C R/B 2.4 17:27:25 10° SSE 17:32:21 68° ENE 17:37:28 10° N
SL-8 Rocket 4.0 17:27:41 10° N 17:33:48 59° ENE 17:39:52 10° SSE
SJ-12 3.8 17:31:10 10° SSE 17:35:15 75° ENE 17:39:24 10° N
Cosmos 1238 Rocket 3.6 17:34:31 10° SE 17:36:35 18° E 17:36:55 17° E
ISS -1.5 17:34:11 10° S 17:36:38 19° SE 17:38:24 14° E
CZ-2C R/B 3.9 17:32:26 10° N 17:36:52 73° WNW 17:41:19 10° SSW
Okean 3 3.4 17:33:05 10° S 17:37:22 81° E 17:41:41 10° NNE
Cosmos 1812 4.0 17:34:45 10° SE 17:37:42 21° E 17:39:31 16° NE
SL-27 R/B 2.8 17:34:17 10° NNW 17:37:52 47° ENE 17:41:24 10° SE
CRYOSAT 2 4.5 17:33:03 10° NNE 17:37:54 56° E 17:42:42 10° S
CZ-4 R/B 1.5 17:34:33 10° SSE 17:38:45 85° WSW 17:42:56 10° NNW
CORIOLIS 4.1 17:33:39 10° SSE 17:39:01 71° ENE 17:44:26 10° N
Cosmos 1975 Rocket 3.0 17:35:03 10° S 17:39:17 60° E 17:43:34 10° NNE
USA 234 3.3 17:36:06 13° ENE 17:42:10 81° SE 17:48:44 10° SW
COSMOS 2406 3.5 17:37:36 10° NNW 17:43:20 75° WSW 17:49:02 10° SSE
Cosmos 2366 rocket 4.1 17:37:27 10° N 17:43:41 53° ENE 17:49:50 10° SSE
Cosmos 2218 Rocket 4.0 17:38:53 10° N 17:45:10 61° ENE 17:51:19 10° SSE
SPOT 3 Rocket 3.6 17:40:47 10° SSE 17:45:59 88° WSW 17:51:13 10° NNW
Cosmos 2278 Rocket 3.4 17:42:39 10° SSE 17:46:50 22° E 17:49:01 17° ENE
USA 116 4.5 17:41:31 10° NNE 17:46:55 70° ESE 17:52:13 10° S
PAYLOAD A 4.5 17:43:40 10° S 17:48:24 61° W 17:53:21 10° NNW
COSMOS 2441 4.5 17:43:48 10° SE 17:48:31 53° ENE 17:53:18 10° N
Cosmos 2181 Rocket 4.0 17:43:20 10° S 17:49:40 80° E 17:56:08 10° N
Cosmos 1959 Rocket 4.4 17:43:52 10° N 17:50:00 65° ENE 17:56:10 10° SSE
Meteor 2-19 Rocket 4.4 17:44:03 10° N 17:50:07 69° ENE 17:56:09 10° SSE
AQUARIUS 4.2 17:45:57 10° SSE 17:50:27 84° WSW 17:55:00 10° NNW
Cosmos 1975 3.5 17:47:42 10° N 17:51:24 31° ENE 17:55:02 10° SE
Meteor 1-5 Rocket 4.2 17:48:26 10° NNW 17:53:50 83° W 17:59:21 10° S
Cosmos 1536 Rocket 4.3 17:51:59 10° SSE 17:55:55 31° E 17:58:32 17° NE
SMAP 3.3 17:51:50 10° S 17:56:29 75° WSW 18:01:09 10° NNW
IDEFIX/ARIANE 42P 2.8 17:56:32 10° S 18:01:44 72° WSW 18:06:56 10° NNW
ATLAS 2AS CENTAUR R/B 3.1 17:53:47 10° NW 18:02:00 90° NE 18:09:43 10° SE
MONITOR-E 4.1 17:59:09 10° SSE 18:02:19 65° ENE 18:05:30 10° N
YAOGAN 1 2.9 17:58:41 10° S 18:03:00 68° WSW 18:07:20 10° NNW
USA 32 3.9 17:57:59 10° S 18:03:11 71° E 18:08:24 10° N
Cosmos 2082 Rocket 2.8 18:02:22 10° NNW 18:07:29 33° NE 18:10:01 23° E
APEX 4.4 18:04:31 10° SW 18:11:00 72° WNW 18:15:22 15° NNE
Cosmos 372 Rocket 4.1 18:06:09 10° SSW 18:11:24 81° WNW 18:16:26 11° NNE
Resurs 01 Rocket 3.8 18:16:00 12° NNE 18:16:00 12° NNE 18:16:28 10° NNE
Cosmos 1833 Rocket 3.4 18:09:02 10° NNW 18:14:06 32° NE 18:15:43 27° E
ASTRO F (AKARI) 4.1 18:15:54 31° NNE 18:17:15 80° ESE 18:20:23 10° SSW
SKYMED 2 3.7 18:17:20 25° NE 18:19:37 50° E 18:23:50 10° S
COSMOS 2487 3.8 18:16:27 10° N 18:18:23 25° NNE 18:18:23 25° NNE
Thor Agena Rocket 3.8 18:15:33 10° N 18:20:42 69° WNW 18:25:54 10° SSW
Cosmos 1455 Rocket 3.1 18:17:41 10° N 18:22:06 84° W 18:26:31 10° S
Cosmos 1125 Rocket 4.5 18:19:16 10° SW 18:24:22 47° WNW 18:29:32 10° NNE
ALOS 4.4 18:27:44 12° NNE 18:27:44 12° NNE 18:28:07 10° N
Cosmos 494 Rocket 4.0 18:19:35 10° NNW 18:24:51 84° WSW 18:30:06 10° SSE
Cosmos 1484 Rocket 2.7 18:23:10 10° S 18:26:57 81° WSW 18:30:42 10° NNW
BREEZE-M DEB (TANK) 3.3 18:20:41 10° W 18:28:22 70° N 18:30:06 37° ENE
Genesis I 3.2 18:26:36 10° NNW 18:30:31 55° NE 18:30:44 54° ENE
Meteor 1-18 Rocket 4.1 18:27:47 10° S 18:33:25 81° E 18:39:12 10° NNE
METEOR-M 4.2 18:28:37 10° SE 18:33:47 52° ENE 18:38:59 10° N
NOAA 12 4.0 18:28:50 10° SSE 18:34:01 61° ENE 18:39:13 10° N
Cosmos 2251 Rocket 4.1 18:31:15 10° NNW 18:36:32 60° WSW 18:41:46 10° S
Cosmos 2263 Rocket 4.0 18:32:29 10° W 18:37:08 26° NW 18:41:52 10° NNE
Abrixas 3.0 18:35:17 10° W 18:37:45 58° W 18:37:45 58° W
ATLAS CENTAUR R/B 3.9 18:40:38 10° NW 18:42:26 12° NNW 18:43:46 11° N
Meteor 2-21 4.3 18:36:25 10° N 18:42:39 79° E 18:48:48 10° SSE
Nadezhda 3 Rocket 4.0 18:38:13 10° SSE 18:44:14 56° E 18:50:03 12° NNE
Cosmos 1500 3.2 18:46:13 10° NNW 18:50:02 77° W 18:53:52 10° S
Okean 1 3.3 18:46:37 10° S 18:50:41 84° W 18:51:26 58° N
CZ-3A R/B 4.1 18:45:40 10° WSW 18:51:43 78° NNW 19:09:03 26° ENE
DMSP B5D1-3 4.4 18:52:26 31° NNE 18:54:57 81° ESE 19:00:06 10° SSW
Cosmos 1844 Rocket 3.3 18:57:34 10° SW 19:03:03 55° NW 19:06:05 26° N
BREEZE M DEB (TANK) 3.2 18:59:38 10° WNW 19:03:10 82° SSW 19:05:22 44° ESE
Meteor 2-14 Rocket 4.3 19:00:42 10° N 19:06:54 88° E 19:13:03 10° S
COSMO-SKYMED 1 3.2 19:05:55 32° N 19:07:41 55° WNW 19:11:55 10° SSW
Cosmos 1346 Rocket 4.3 19:08:23 10° SSW 19:10:18 28° SSW 19:10:18 28° SSW
Cosmos 1844 4.1 19:07:03 10° SW 19:12:33 60° WNW 19:14:39 37° N
ISS -1.2 19:09:28 10° WSW 19:11:05 26° WSW 19:11:05 26° WSW
BREEZE-M R/B 3.9 19:04:57 10° SW 19:13:18 54° SSE 19:13:23 54° SSE
Cosmos 1812 4.3 19:09:52 10° SW 19:13:23 33° WNW 19:14:44 26° NW
Meteor 1-19 Rocket 4.5 19:17:46 10° S 19:22:22 57° SSE 19:22:22 57° SSE
USA 234 3.7 19:23:27 43° NNE 19:25:00 52° NNW 19:31:17 10° W
FengYun 1-2 T 4.2 19:25:21 80° N 19:25:21 80° N 19:30:46 10° NNW
FALCON 9 R/B 4.1 19:10:15 10° WSW 19:25:22 32° S 19:28:01 26° SSE
Cosmos 2278 Rocket 2.4 19:24:45 10° SW 19:30:23 69° WNW 19:30:55 65° NNW
NOSS 3-4 (A) 3.6 19:30:40 10° NW 19:37:25 73° NNE 19:37:25 73° NNE
NOSS 3-4 (C) 3.7 19:30:46 10° NW 19:37:29 73° NNE 19:37:29 73° NNE
Meteor 1-13 Rocket 4.4 19:32:29 10° SSW 19:38:07 71° WNW 19:38:27 69° NW
Cosmos 1934 Rocket 4.0 19:37:33 10° N 19:43:11 73° NW 19:43:11 73° NW
NOSS 3-3 (A) 4.1 19:41:10 10° SW 19:47:15 78° WNW 19:47:15 78° WNW
NOSS 3-3 (C) 4.1 19:41:16 10° SW 19:47:18 78° W 19:47:18 78° W
Resurs 01 Rocket 4.4 19:53:35 10° NNW 19:53:35 10° NNW 19:53:39 10° NNW
Cosmos 2082 Rocket 2.9 19:46:20 10° NW 19:51:48 51° WSW 19:51:57 51° WSW
CZ-3B DEB 3.2 19:50:29 10° WSW 19:55:57 77° NNW 19:57:23 65° NE
Cosmos 1833 Rocket 3.5 19:52:49 10° NW 19:57:28 48° W 19:57:28 48° W
BREEZE-M DEB (TANK) 4.2 20:01:48 10° WNW 20:15:18 60° NW 20:15:18 60° NW
